NOAA 16 DEB, 41529

Orbit data source: Space-Track

NOAA 16 DEB, 41529 is space debris in SSO originally from a launch on Thu, 21 Sep 2000 UTC launched from the Air Force Western Test Range (AFWTR). Debris objects in space refer to the collection of defunct objects orbiting the Earth. Examples of debris include non-operational satellites, rocket bodies, and fragments generated from explosions, collisions, or faulty payload assembly.

Loading next visibility...
Identifier
41529, 2000-055ND
Orbit
SSO
Country
Flag of USUS
Related business
Manufacturer
Unknown
Mission
Spacecraft
Bus & Motor
Unknown
Mass
Unknown
Launch date (UTC)
2000-09-21 (26 years ago)
Launch vehicle
Unknown
Launch site
Air Force Western Test Range (AFWTR)
Object type
Payload
Rocket body
Debris
Shape & HBR
Unknown shape, 0.1 m
Radar Cross Section
Medium (>0.1 m² and <1 m²)

Expand to show TLE details & history
Last TLE update: 3 days ago

TLE from 3 days ago
0 NOAA 16 DEB
1 41529U 00055ND  26170.51931266  .00001956  00000-0  99601-3 0  9999
2 41529  98.7022 199.4039 0032848 265.5450  94.1972 14.16648960526031
Epoch: 2026-06-19T12:27Z
TLE epoch observation values (Epoch: 2026-06-19T12:27:48.613Z)
Latitude
-0.00001°
Longitude
104.70422°
Altitude
841.43 km
Speed
7.431 km/s
True Right ascension
13h 17m 36s
True Declination
0° 00' 00"
Sunlit
Object was in daylight at epoch
Visualization orbit readout
Latitude
Unknown
Longitude
Unknown
Altitude
Unknown
Speed
Unknown
Apparent Right ascension
Unknown
Apparent Declination
Unknown
Sunlit
N/A
Visualization observer readout
Local Sidereal Time
21:34:59
Azimuth
Unknown
Elevation
Unknown
Doppler factor
Unknown
Orbital elements
Apogee altitude
857.561 km
Perigee altitude
810.181 km
Semi-major axis
7,212.008 km
Eccentricity
0.00328
Inclination
98.7022°
RAAN
199.4039°
Arg. of periapsis
265.545°
True anomaly
94.57249°
Mean anomaly
94.1972°
Eccentric anomaly
94.38485°
Mean motion
3.54372 °/min
Orbital period
101.59 mins
BSTAR
0.00099601
Loading maneuver chart data...
Computing Atmospheric mass density...
Loading historical data...
Loading historical data...
Loading historical data...
Loading historical data...
Loading historical data...
Loading historical data...
Loading historical data...

Documentation

Showing up to 5 results
|